Flag for Botswana Weather past 2 weeks in Molepolole, Botswana

Now
84 °F

Partly sunny.


Feels Like: 81 °F
Forecast: 49 / 70 °F
Wind: 17 mph from Northwest

Location: Seretse Khama International Airport

Current Time: Aug 21, 2014 at 6:09:10 PM

Latest Report: Aug 21, 2014 at 5:00 PM


Visibility: N/A

Pressure: 29.92 "Hg

Humidity: 11%

Dew point: 25 °F

Location of MolepololeLocation

Historic Weather in Molepolole — Graph

°F

Molepolole temperature yesterday

Maximum temperature yesterday: 88 °F (at 3:00 PM)
Minimum temperature yesterday: 55 °F (at 7:00 AM)
Average temperature yesterday: 72 °F

Past Weeks' High & Low Weather Summary

 TemperatureHumidityPressure
High91 °F (Aug 17, 5:00 PM)88% (Aug 10, 2:00 AM)30.45 "Hg (Aug 10, 2:00 AM)
Low48 °F (Aug 13, 5:00 AM)10% (Aug 21, 2:00 PM)29.92 "Hg (Aug 21, 3:00 PM)
Average66 °F43%30.21 "Hg
* Reported Aug 6 5:00 PM — Aug 21 5:00 PM, Molepolole, Weather by CustomWeather, © 2014

Note: Actual official high and low records may vary slightly from our data, if they occured in-between our weather recording intervals... More about our weather records

Advertising

Molepolole weather history for previous 24 hours

 ConditionsComfort  
Time TempWeatherWind HumidityBarometerVisibility
5:00 PM
Aug 21
84 °FPartly sunny.17 mph11%29.92 "HgN/A
4:00 PM86 °FPartly sunny.14 mph11%29.92 "HgN/A
3:00 PM86 °FPartly sunny.17 mph11%29.92 "HgN/A
2:00 PM88 °FPassing clouds.17 mph10%29.95 "HgN/A
1:00 PM84 °FPassing clouds.5 mph12%29.98 "HgN/A
12:00 PM81 °FSunny.3 mph14%30.01 "Hg10 mi
11:00 AM77 °FSunny.3 mph15%30.07 "Hg10 mi
10:00 AM73 °FPassing clouds.3 mph17%30.07 "HgN/A
9:00 AM66 °FPassing clouds.5 mph24%30.09 "HgN/A
8:00 AM63 °FSunny.3 mph27%30.07 "Hg10 mi
7:00 AM54 °FSunny.5 mph41%30.04 "Hg10 mi
6:00 AM55 °FSunny.3 mph36%30.04 "Hg10 mi
5:00 AM57 °FPassing clouds.7 mph33%30.01 "HgN/A
4:00 AM59 °FClear.6 mph31%30.01 "Hg10 mi
3:00 AM61 °FPassing clouds.3 mph29%30.01 "HgN/A
2:00 AM63 °FClear.5 mph27%30.04 "Hg10 mi
1:00 AM64 °FClear.5 mph28%30.04 "Hg10 mi
12:00 AM64 °FPassing clouds.3 mph28%30.04 "HgN/A
11:00 PM
Aug 20
70 °FPassing clouds.3 mph23%30.07 "HgN/A
10:00 PM70 °FClear.6 mph23%30.07 "Hg10 mi
9:00 PM72 °FClear.1 mph20%30.07 "Hg10 mi
8:00 PM72 °FClear.3 mph20%30.07 "Hg10 mi
7:00 PM75 °FClear.2 mph18%30.04 "Hg10 mi
6:00 PM82 °FClear.5 mph14%30.04 "Hg10 mi
Weather by CustomWeather, © 2014

See weather overviewHow to use our weather pages